Regional Weather Roundup
Issued by NWS

Home | Current Version | Previous Version | Graphics & Text | Print | Product List | Glossary Off
Versions: 1 2 3 4 5 6 7 8 9 10 11 12 13 14 15 16 17 18 19 20 21 22 23 24 25 26 27 28 29 30 31 32 33 34 35 36 37 38 39 40 41 42 43 44 45 46 47 48 49 50

000
ASUS43 KTOP 060059
RWRKS

WEATHER ROUNDUP FOR KANSAS
NATIONAL WEATHER SERVICE GOODLAND KS
800 PM CDT THU MAY 05 2016

NOTE:  "FAIR" INDICATES FEW OR NO CLOUDS BELOW 12,000 FEET WITH NO
SIGNIFICANT WEATHER AND/OR OBSTRUCTIONS TO VISIBILITY.

KSZ001>006-013>018-027>032-041>047-060200-
NORTHWEST KANSAS

CITY           SKY/WX    TMP DP  RH WIND       PRES   REMARKS
GOODLAND       CLOUDY    74  44  34 SE13      30.00S
HAYS           CLEAR     72  48  43 SE9       30.01S
HILL CITY      CLOUDY    74  48  39 SE6       30.00F
RUSSELL        CLEAR     71  51  49 SE7       30.00F
$$

KSZ061>065-074>080-084>089-060200-
SOUTHWEST KANSAS

CITY           SKY/WX    TMP DP  RH WIND       PRES   REMARKS
DODGE CITY     CLEAR     70  50  49 SE9       30.02S
ELKHART          N/A     78  45  31 SE17        N/A
GARDEN CITY    CLEAR     75  46  35 SE12      30.00S
GREAT BEND     CLEAR     73  45  35 SE7       30.01S
LIBERAL        CLEAR     75  46  35 SE12      30.00S
$$

KSZ066>073-081>083-090>101-060200-
SOUTHEAST KANSAS

CITY           SKY/WX    TMP DP  RH WIND       PRES   REMARKS
CHANUTE        CLEAR     70  43  37 NE6       30.01S
COFFEYVILLE    CLEAR     72  47  40 NE3       30.00F
HUTCHINSON     CLEAR     72  47  40 E3        30.01S
MEDICINE LODGE   N/A     75  48  38 S5        30.01S
NEWTON         CLEAR     73  39  29 CALM      30.04S
PARSONS        CLEAR     69  50  50 CALM      30.02S
WICHITA INTL   CLEAR     72  47  40 SW6       30.01R
WICHITA JABRA  CLEAR     72  43  35 E5        30.01S
WINFIELD       CLEAR     75  40  28 E3        30.47R
$$

KSZ007>012-019>026-033>040-048>060-102>105-060200-
NORTHEAST KANSAS

CITY           SKY/WX    TMP DP  RH WIND       PRES   REMARKS
CONCORDIA      CLEAR     69  45  41 S7        30.00F
EMPORIA        CLEAR     70  46  42 NE5       30.01S
LAWRENCE       CLEAR     68  46  45 CALM      30.02S
MANHATTAN      CLEAR     70  50  49 CALM      30.00S
OLATHE IND     CLEAR     63  44  50 N6        30.03S
OLATHE EXE     CLEAR     67  37  33 NE6       30.02S
SALINA         CLEAR     76  43  30 E5        30.01S
TOPEKA BILLARD CLEAR     73  40  30 CALM      30.01S
TOPEKA FORBES  CLEAR     73  42  32 NE3       30.02S
$$




USA.gov is the U.S. government's official web portal to all federal, state and local government web resources and services.